sat.trackr.live / text

‹ back to catalog

STARLINK-5023

NORAD 53919 · 2022-119AK

PAYLOAD ACTIVE UNKNOWN

§ Identity

Operator
Country
US
Launch date
2022-09-24
Launch site
AFETR
Launch vehicle
Mass (kg)
RCS (m²)

Purposes: comms

External: N2YO · Heavens-Above · Gunter

§ Orbital elements

Epoch: 2026-05-24T19:03:59.965056Z

Period
95.06 min
Inclination
53.2167°
Eccentricity
0.0001424
Mean motion
15.14842102 rev/d
Perigee alt
520.5 km
Apogee alt
522.4 km
Semi-major
6,899.6 km
B*
6.3265e-5
RAAN
331.1160°
Arg perigee
91.5469°
Mean anomaly
268.5689°
Rev number
20,333

§ Raw data

STARLINK-50231 53919U 22119AK  26144.79444404  .00000884  00000+0  63265-4 0  99902 53919  53.2167 331.1160 0001424  91.5469 268.5689 15.14842102203336

JSON: /api/v1/satellites/53919 · /tle

For live sub-satellite position, see the globe view (requires WebGL).

§ Visibility from observer

Set your observer location to see the next 7 days of passes ≥ 10°. The values pass through the URL so the page stays shareable.

No JS? Fill the form by hand. The geolocation button needs JavaScript.